Terug naar catalogus

DELTA 1 DEB

LostPO
NORAD 42630·DEBRIS·🇺🇸 United States

Gelanceerd Jun 12, 1975 vanaf Vandenberg Space Force Base

Loading…

Volgende Passages (komende 24 uur)

TLE

VerouderdSource: Space-Track

Epoch: Aug 24, 2022, 10:12 UTC

1 42630U 75052LP  22236.42569141  .00001198  00000-0  29173-3 0  9995
2 42630  99.9058 296.5432 0142063 294.2815  74.7079 14.49355824414429

Volg DELTA 1 DEB in realtime met AllMySat

Download on the App Store